Regional Weather Roundup
Issued by NWS Jackson, KY

Home | Current Version | Previous Version | Graphics & Text | Print | Product List | Glossary On
Versions: 1 2 3 4 5 6 7 8 9 10 11 12 13 14 15 16 17 18 19 20 21 22 23 24 25 26 27 28 29 30 31 32 33 34 35 36 37 38 39 40 41 42 43 44 45 46 47 48 49 50
000
ASUS43 KJKL 281519
RWRJKL

EAST KENTUCKY HOURLY WEATHER ROUNDUP
NATIONAL WEATHER SERVICE JACKSON KY
1000 AM EST WED JAN 28 2015

NOTE: "FAIR" INDICATES FEW OR NO CLOUDS BELOW 12,000 FEET WITH
NO SIGNIFICANT WEATHER AND/OR OBSTRUCTIONS TO VISIBILITY.

* THESE REPORTS ARE NOT UNDER NWS QUALITY CONTROL AND MAY NOT
  REPORT WEATHER SUCH AS PRECIPITATION AND FOG.

KYZ079-080-083-085-087-088-110-112-115-119-120-281600
...EASTERN KENTUCKY...

CITY           SKY/WX    TMP DP  RH WIND       PRES   REMARKS
JACKSON        SUNNY     20  13  74 CALM      30.34R
LONDON         SUNNY     23  12  62 VRB3      30.35R
SOMERSET*      SUNNY     25  16  68 CALM      30.39R
MONTICELLO*    SUNNY     26  17  68 CALM      30.39R
MIDDLESBORO*   SUNNY     24  16  72 CALM      30.36S
HARLAN APT*    SUNNY     25  18  74 SE6       30.32S WCI  18
HAZARD APT*    SUNNY     23  18  80 CALM      30.36R
BLACK MTN*       N/A     25  21  86 N3          N/A
BIG SANDY*     MOSUNNY   22  16  77 CALM      30.36R
MOREHEAD APT*  SUNNY     23  14  68 VRB3      30.41R
ASHLAND*       SUNNY    N/A N/A N/A CALM      30.39R
$$

KYZ035-036-041-042-044-050-067-078-099-281600
...CENTRAL KENTUCKY...

CITY           SKY/WX    TMP DP  RH WIND       PRES   REMARKS
MT STERLING*   SUNNY     23  14  68 SE3       30.39R
DANVILLE*      SUNNY     23  18  80 SE3       30.38R
RICHMOND*      SUNNY     21  14  73 SE3       30.37R
LEXINGTON      SUNNY     23  14  68 SE7       30.38R WCI  15
FRANKFORT      SUNNY     22  14  71 E8        30.38R WCI  12
$$

KYZ091>093-OHZ055-061-077-WVZ005-015-034-035-042-281600
...SOUTHERN OHIO/WEST VIRGINIA...

CITY           SKY/WX    TMP DP  RH WIND       PRES   REMARKS
COVINGTON      MOSUNNY   23  16  74 S5        30.37R WCI  17
COLUMBUS       SUNNY     15  13  91 CALM      30.38R
DAYTON         MOSUNNY   16  15  96 SE3       30.36R FOG
WILMINGTON     SUNNY     17  13  84 CALM      30.37R FOG
HUNTINGTON     SUNNY     21  15  78 CALM      30.39R
CHARLESTON     MOSUNNY   21  13  71 CALM      30.38R
PINEVILLE*     CLOUDY    24  19  79 MISG      30.35S
BECKLEY        CLOUDY    18  12  77 NW6       30.24R HAZE    WCI  10
BLUEFIELD      CLOUDY    20  14  77 VRB5      30.22R WCI  13
$$

VAZ002-007-008-TNZ017-027-036-066-071-281600
...SOUTHWEST VIRGINIA/EAST TENNESSEE...

CITY           SKY/WX    TMP DP  RH WIND       PRES   REMARKS
WISE*          CLOUDY    19  19 100 CALM      30.25R
JONESVILLE*    SUNNY     25  14  63 CALM      30.36R
ABINGDON*      SUNNY     25  16  69 CALM      30.27S
BRISTOL        SUNNY     25  15  66 CALM      30.32R
KNOXVILLE      SUNNY     30  16  56 NE9       30.34R WCI  22
OAK RIDGE      SUNNY     31  16  54 E8        30.36R WCI  23
CROSSVILLE     SUNNY     28  14  55 E6        30.30R WCI  22
NASHVILLE      SUNNY     35  22  58 E10       30.35R WCI  27
$$

...KEY TO REMARKS...
VSB - VISIBILITY IN MILES
WCI - WIND CHILL INDEX
HX  - HEAT INDEX

$$


USA.gov is the U.S. government's official web portal to all federal, state and local government web resources and services.